User: anonymous   Login
Location: ?
(35.3436°N, 139.3168°E)
Time: 17:20:00
(UTC+00:00)
Language:

NO-84 - Orbit

View from above orbital plane
View from above orbital plane
View from above satellite
View from above satellite

Ground track
Ground track

The orbit data is extracted from the following two-line orbital elements,

1 40654U 15025D   21104.26652382  .00018404  00000-0  15167-3 0  2593
2 40654  54.9849 343.8068 0082023 254.0213 105.1779 15.66099550215941
Epoch (UTC): 14 April 2021 06:23:47
Eccentricity: 0.0082023
inclination: 54.9849°
perigee height: 315 km
apogee height: 425 km
right ascension of ascending node: 343.8068°
argument of perigee: 254.0213°
revolutions per day: 15.66099550
mean anomaly at epoch: 105.1779°
orbit number at epoch: 21594

The dashed part of the orbit path shows where the satellite is in the earth's shadow,  

DLR